DECAYED

COSMOS 2251 DEB, 33901 (Decayed)

Orbit data source: Space-Track

COSMOS 2251 DEB, 33901 was space debris in LEO originally from a launch on Wed, 16 Jun 1993 UTC launched from the Plesetsk Missile And Space Complex (PKMTR). The debris from Iridium 33, an American commercial communications satellite, has been tracked extensively since its accidental collision with the defunct Russian satellite Cosmos 2251 in 2009. This event, occurring at high speed in low Earth orbit (LEO), generated thousands of pieces of space debris, significantly increasing the risk of further collisions. The Iridium 33 debris cloud has impacted space traffic management and orbital debris mitigation strategies, making it a subject of ongoing study in space situational awareness.

Not visible in the next 10 days
Identifier
33901, 1993-036DE
Orbit
Decayed
Country
Flag of CISCIS
Related business
Manufacturer
Unknown
Mission
Decayed spacecraft
Bus & Motor
Unknown
Mass
Unknown
Launch date (UTC)
1993-06-16 (33 years ago)
Launch vehicle
Unknown
Launch site
Plesetsk Missile And Space Complex (PKMTR)
Object type
Payload
Rocket body
Debris
Shape & HBR
Unknown shape, 0.1 m
Radar Cross Section
Medium (>0.1 m² and <1 m²)

Expand to show TLE details & history
Last TLE update: 1 month ago

TLE from 1 month ago
0 COSMOS 2251 DEB
1 33901U 93036DE  26209.97092595  .09120809  20716-5  42615-2 0  9992
2 33901  73.7281 268.6701 0017675 295.3717  64.5700 16.21108226930245
Epoch: 2026-07-28T23:18Z
TLE epoch observation values (Epoch: 2026-07-28T23:18:08.002Z)
Latitude
-0.00004°
Longitude
-27.49576°
Altitude
214.367 km
Speed
7.781 km/s
True Right ascension
17h 54m 40s
True Declination
0° 00' 00"
Sunlit
Object was in full shadow at epoch
Visualization orbit readout
Latitude
Unknown
Longitude
Unknown
Altitude
Unknown
Speed
Unknown
Apparent Right ascension
Unknown
Apparent Declination
Unknown
Sunlit
N/A
Visualization observer readout
Local Sidereal Time
15:33:38
Azimuth
Unknown
Elevation
Unknown
Doppler factor
Unknown
Orbital elements
Apogee altitude
225.648 km
Perigee altitude
202.345 km
Semi-major axis
6,592.134 km
Eccentricity
0.00177
Inclination
73.7281°
RAAN
268.6701°
Arg. of periapsis
295.3717°
True anomaly
64.75309°
Mean anomaly
64.57°
Eccentric anomaly
64.66153°
Mean motion
4.05512 °/min
Orbital period
88.78 mins
BSTAR
0.0042615
Loading maneuver chart data...
Computing Atmospheric mass density...

Documentation

Showing up to 5 results
|